Time,TemperatureF,DewpointF,PressureIn,WindDirection,WindDirectionDegrees,WindSpeedMPH,WindSpeedGustMPH,Humidity,HourlyPrecipIn,Conditions,Clouds,dailyrainin,SoftwareType,DateUTC
2013-12-29 00:01:00,31.5,-18.8,30.23,SSE,158,0.0,0.0,1,0.00,,,0.00,WUHU216HW,2013-12-29 08:01:00,
2013-12-29 00:06:00,31.3,-18.9,30.22,SSE,158,0.0,0.0,1,0.00,,,0.00,WUHU216HW,2013-12-29 08:06:00,
2013-12-29 00:11:00,31.3,-18.9,30.22,SSE,158,0.0,0.0,1,0.00,,,0.00,WUHU216HW,2013-12-29 08:11:00,
2013-12-29 00:16:00,31.3,-18.9,30.22,SSE,158,0.0,0.0,1,0.00,,,0.00,WUHU216HW,2013-12-29 08:16:00,
2013-12-29 00:21:00,31.1,-19.1,30.22,SSE,158,0.0,0.0,1,0.00,,,0.00,WUHU216HW,2013-12-29 08:21:00,
2013-12-29 00:26:00,31.1,-19.1,30.21,SSE,158,0.0,0.0,1,0.00,,,0.00,WUHU216HW,2013-12-29 08:26:00,
2013-12-29 00:31:00,31.0,-19.3,30.21,SSE,158,0.0,0.0,1,0.00,,,0.00,WUHU216HW,2013-12-29 08:31:00,
2013-12-29 00:36:00,30.8,-19.3,30.20,SSE,158,0.0,0.0,1,0.00,,,0.00,WUHU216HW,2013-12-29 08:36:00,
2013-12-29 00:41:00,30.6,-19.5,30.20,SSE,158,0.0,0.0,1,0.00,,,0.00,WUHU216HW,2013-12-29 08:41:00,
2013-12-29 00:46:00,30.6,-19.5,30.20,SSE,158,0.0,0.0,1,0.00,,,0.00,WUHU216HW,2013-12-29 08:46:00,
2013-12-29 00:51:00,30.6,-19.5,30.19,SSE,158,0.0,0.0,1,0.00,,,0.00,WUHU216HW,2013-12-29 08:51:00,
2013-12-29 00:56:00,30.4,-19.6,30.19,SSE,158,0.0,0.0,1,0.00,,,0.00,WUHU216HW,2013-12-29 08:56:00,
2013-12-29 01:01:00,30.4,-19.6,30.19,SSE,158,0.0,0.0,1,0.00,,,0.00,WUHU216HW,2013-12-29 09:01:00,
2013-12-29 01:06:00,30.2,-19.8,30.19,SSE,158,0.0,0.0,1,0.00,,,0.00,WUHU216HW,2013-12-29 09:06:00,
2013-12-29 01:11:00,30.2,-19.8,30.20,SSE,158,0.0,0.0,1,0.00,,,0.00,WUHU216HW,2013-12-29 09:11:00,
2013-12-29 01:16:00,30.2,-19.8,30.20,South,180,0.0,0.0,1,0.00,,,0.00,WUHU216HW,2013-12-29 09:16:00,
2013-12-29 01:21:00,30.1,-20.0,30.21,South,180,0.0,0.0,1,0.00,,,0.00,WUHU216HW,2013-12-29 09:21:00,
2013-12-29 01:26:00,30.1,-20.0,30.21,South,180,0.0,0.0,1,0.00,,,0.00,WUHU216HW,2013-12-29 09:26:00,
2013-12-29 01:31:00,30.1,-20.0,30.21,South,180,0.0,0.0,1,0.00,,,0.00,WUHU216HW,2013-12-29 09:31:00,
2013-12-29 01:36:00,29.9,-20.1,30.21,South,180,0.0,0.0,1,0.00,,,0.00,WUHU216HW,2013-12-29 09:36:00,
2013-12-29 01:41:00,29.9,-20.1,30.21,South,180,0.0,0.0,1,0.00,,,0.00,WUHU216HW,2013-12-29 09:41:00,
2013-12-29 01:46:00,29.9,-20.1,30.21,South,180,0.0,0.0,1,0.00,,,0.00,WUHU216HW,2013-12-29 09:46:00,
2013-12-29 01:51:00,29.7,-20.2,30.21,South,180,0.0,0.0,1,0.00,,,0.00,WUHU216HW,2013-12-29 09:51:00,
2013-12-29 01:56:00,29.7,-20.2,30.21,South,180,0.0,0.0,1,0.00,,,0.00,WUHU216HW,2013-12-29 09:56:00,
2013-12-29 02:01:00,29.5,-20.3,30.21,South,180,0.0,0.0,1,0.00,,,0.00,WUHU216HW,2013-12-29 10:01:00,
2013-12-29 02:06:00,29.5,-20.3,30.20,South,180,0.0,0.0,1,0.00,,,0.00,WUHU216HW,2013-12-29 10:06:00,
2013-12-29 02:11:00,29.3,-20.5,30.20,South,180,0.0,0.0,1,0.00,,,0.00,WUHU216HW,2013-12-29 10:11:00,
2013-12-29 02:16:00,29.3,-20.5,30.20,South,180,0.0,0.0,1,0.00,,,0.00,WUHU216HW,2013-12-29 10:16:00,
2013-12-29 02:21:00,29.2,-20.7,30.20,South,180,0.0,0.0,1,0.00,,,0.00,WUHU216HW,2013-12-29 10:21:00,
2013-12-29 02:26:00,29.2,-20.7,30.20,SE,135,0.0,0.0,1,0.00,,,0.00,WUHU216HW,2013-12-29 10:26:00,
2013-12-29 02:31:00,29.2,-20.7,30.20,SE,135,0.0,0.0,1,0.00,,,0.00,WUHU216HW,2013-12-29 10:31:00,
2013-12-29 02:36:00,29.3,-20.5,30.20,SE,135,0.0,0.0,1,0.00,,,0.00,WUHU216HW,2013-12-29 10:36:00,
2013-12-29 02:41:00,29.3,-20.5,30.20,SE,135,0.0,0.0,1,0.00,,,0.00,WUHU216HW,2013-12-29 10:41:00,
2013-12-29 02:46:00,29.3,-20.5,30.20,SE,135,0.0,0.0,1,0.00,,,0.00,WUHU216HW,2013-12-29 10:46:00,
2013-12-29 02:51:00,29.5,-20.3,30.20,SE,135,0.0,0.0,1,0.00,,,0.00,WUHU216HW,2013-12-29 10:51:00,
2013-12-29 02:56:00,29.5,-20.3,30.19,SE,135,0.0,0.0,1,0.00,,,0.00,WUHU216HW,2013-12-29 10:56:00,
2013-12-29 03:01:00,29.3,-20.5,30.19,SE,135,0.0,0.0,1,0.00,,,0.00,WUHU216HW,2013-12-29 11:01:00,
2013-12-29 03:06:00,29.3,-20.5,30.19,SE,135,0.0,0.0,1,0.00,,,0.00,WUHU216HW,2013-12-29 11:06:00,
2013-12-29 03:11:00,29.3,-20.5,30.19,South,180,0.0,0.0,1,0.00,,,0.00,WUHU216HW,2013-12-29 11:11:00,
2013-12-29 03:16:00,29.3,-20.5,30.19,South,180,0.0,0.0,1,0.00,,,0.00,WUHU216HW,2013-12-29 11:16:00,
2013-12-29 03:21:00,29.2,-20.7,30.19,South,180,0.0,0.0,1,0.00,,,0.00,WUHU216HW,2013-12-29 11:21:00,
2013-12-29 03:26:00,29.2,-20.7,30.19,South,180,0.0,0.0,1,0.00,,,0.00,WUHU216HW,2013-12-29 11:26:00,
2013-12-29 03:31:00,29.2,-20.7,30.19,South,180,0.0,0.0,1,0.00,,,0.00,WUHU216HW,2013-12-29 11:31:00,
2013-12-29 03:36:00,29.2,-20.7,30.18,South,180,0.0,0.0,1,0.00,,,0.00,WUHU216HW,2013-12-29 11:36:00,
2013-12-29 03:41:00,29.2,-20.7,30.19,South,180,0.0,0.0,1,0.00,,,0.00,WUHU216HW,2013-12-29 11:41:00,
2013-12-29 03:46:00,29.2,-20.7,30.19,South,180,0.0,0.0,1,0.00,,,0.00,WUHU216HW,2013-12-29 11:46:00,
2013-12-29 03:51:00,29.2,-20.7,30.19,South,180,0.0,0.0,1,0.00,,,0.00,WUHU216HW,2013-12-29 11:51:00,
2013-12-29 03:56:00,29.2,-20.7,30.18,ESE,113,0.0,0.0,1,0.00,,,0.00,WUHU216HW,2013-12-29 11:56:00,
2013-12-29 04:01:00,29.2,-20.7,30.18,ESE,113,0.0,0.0,1,0.00,,,0.00,WUHU216HW,2013-12-29 12:01:00,
2013-12-29 04:06:00,29.2,-20.7,30.18,ESE,113,0.0,0.0,1,0.00,,,0.00,WUHU216HW,2013-12-29 12:06:00,
2013-12-29 04:11:00,29.0,-20.8,30.18,ESE,113,0.0,0.0,1,0.00,,,0.00,WUHU216HW,2013-12-29 12:11:00,
2013-12-29 04:16:00,29.0,-20.8,30.18,ESE,113,0.0,0.0,1,0.00,,,0.00,WUHU216HW,2013-12-29 12:16:00,
2013-12-29 04:21:00,29.0,-20.8,30.17,ESE,113,0.0,0.0,1,0.00,,,0.00,WUHU216HW,2013-12-29 12:21:00,
2013-12-29 04:26:00,28.8,-21.0,30.17,ESE,113,0.0,0.0,1,0.00,,,0.00,WUHU216HW,2013-12-29 12:26:00,
2013-12-29 04:31:00,28.8,-21.0,30.17,ESE,113,0.0,0.0,1,0.00,,,0.00,WUHU216HW,2013-12-29 12:31:00,
2013-12-29 04:36:00,28.8,-21.0,30.17,ESE,113,0.0,0.0,1,0.00,,,0.00,WUHU216HW,2013-12-29 12:36:00,
2013-12-29 04:41:00,28.8,-21.0,30.17,ESE,113,0.0,0.0,1,0.00,,,0.00,WUHU216HW,2013-12-29 12:41:00,
2013-12-29 04:46:00,28.8,-21.0,30.17,ESE,113,0.0,0.0,1,0.00,,,0.00,WUHU216HW,2013-12-29 12:46:00,
2013-12-29 04:51:00,28.8,-21.0,30.17,ESE,113,0.0,0.0,1,0.00,,,0.00,WUHU216HW,2013-12-29 12:51:00,
2013-12-29 04:56:00,28.8,-21.0,30.16,ESE,113,0.0,0.0,1,0.00,,,0.00,WUHU216HW,2013-12-29 12:56:00,
2013-12-29 05:01:00,29.0,-20.8,30.16,ESE,113,0.0,0.0,1,0.00,,,0.00,WUHU216HW,2013-12-29 13:01:00,
2013-12-29 05:06:00,29.0,-20.8,30.16,ESE,113,0.0,0.0,1,0.00,,,0.00,WUHU216HW,2013-12-29 13:06:00,
2013-12-29 05:11:00,29.0,-20.8,30.16,ESE,113,0.0,0.0,1,0.00,,,0.00,WUHU216HW,2013-12-29 13:11:00,
2013-12-29 05:16:00,29.0,-20.8,30.16,ESE,113,0.0,0.0,1,0.00,,,0.00,WUHU216HW,2013-12-29 13:16:00,
2013-12-29 05:21:00,29.0,-20.8,30.16,ESE,113,0.0,0.0,1,0.00,,,0.00,WUHU216HW,2013-12-29 13:21:00,
2013-12-29 05:26:00,29.0,-20.8,30.16,ESE,113,0.0,0.0,1,0.00,,,0.00,WUHU216HW,2013-12-29 13:26:00,
2013-12-29 05:31:00,29.0,-20.8,30.16,ESE,113,0.0,0.0,1,0.00,,,0.00,WUHU216HW,2013-12-29 13:31:00,
2013-12-29 05:36:00,28.8,-21.0,30.15,ESE,113,0.0,0.0,1,0.00,,,0.00,WUHU216HW,2013-12-29 13:36:00,
2013-12-29 05:41:00,28.8,-21.0,30.15,ESE,113,0.0,0.0,1,0.00,,,0.00,WUHU216HW,2013-12-29 13:41:00,
2013-12-29 05:46:00,28.8,-21.0,30.14,ESE,113,0.0,0.0,1,0.00,,,0.00,WUHU216HW,2013-12-29 13:46:00,
2013-12-29 05:51:00,28.8,-21.0,30.14,ESE,113,0.0,0.0,1,0.00,,,0.00,WUHU216HW,2013-12-29 13:51:00,
2013-12-29 05:56:00,29.0,-20.8,30.14,ESE,113,0.0,0.0,1,0.00,,,0.00,WUHU216HW,2013-12-29 13:56:00,
2013-12-29 06:01:00,29.2,-20.7,30.14,ESE,113,0.0,0.0,1,0.00,,,0.00,WUHU216HW,2013-12-29 14:01:00,
2013-12-29 06:06:00,29.2,-20.7,30.14,ESE,113,0.0,0.0,1,0.00,,,0.00,WUHU216HW,2013-12-29 14:06:00,
2013-12-29 06:11:00,29.2,-20.7,30.13,ESE,113,0.0,0.0,1,0.00,,,0.00,WUHU216HW,2013-12-29 14:11:00,
2013-12-29 06:16:00,29.2,-20.7,30.14,ESE,113,0.0,0.0,1,0.00,,,0.00,WUHU216HW,2013-12-29 14:16:00,
2013-12-29 06:21:00,29.2,-20.7,30.15,ESE,113,0.0,0.0,1,0.00,,,0.00,WUHU216HW,2013-12-29 14:21:00,
2013-12-29 06:26:00,29.2,-20.7,30.14,ESE,113,0.0,0.0,1,0.00,,,0.00,WUHU216HW,2013-12-29 14:26:00,
2013-12-29 06:31:00,29.3,-20.5,30.15,East,90,0.0,0.0,1,0.00,,,0.00,WUHU216HW,2013-12-29 14:31:00,
2013-12-29 06:36:00,29.7,-20.2,30.14,East,90,0.0,0.0,1,0.00,,,0.00,WUHU216HW,2013-12-29 14:36:00,
2013-12-29 06:41:00,29.9,-20.1,30.14,East,90,0.0,0.0,1,0.00,,,0.00,WUHU216HW,2013-12-29 14:41:00,
2013-12-29 06:46:00,29.9,-20.1,30.14,East,90,0.0,0.0,1,0.00,,,0.00,WUHU216HW,2013-12-29 14:46:00,
2013-12-29 06:51:00,30.1,-20.0,30.14,East,90,0.0,0.2,1,0.00,,,0.00,WUHU216HW,2013-12-29 14:51:00,
2013-12-29 06:56:00,30.1,-20.0,30.14,East,90,0.0,0.2,1,0.00,,,0.00,WUHU216HW,2013-12-29 14:56:00,
2013-12-29 07:01:00,30.1,-20.0,30.14,East,90,0.0,0.0,1,0.00,,,0.00,WUHU216HW,2013-12-29 15:01:00,
2013-12-29 07:06:00,30.1,-20.0,30.14,East,90,0.0,0.0,1,0.00,,,0.00,WUHU216HW,2013-12-29 15:06:00,
2013-12-29 07:11:00,29.9,-20.1,30.14,East,90,0.0,0.0,1,0.00,,,0.00,WUHU216HW,2013-12-29 15:11:00,
2013-12-29 07:16:00,29.9,-20.1,30.14,East,90,0.0,0.0,1,0.00,,,0.00,WUHU216HW,2013-12-29 15:16:00,
2013-12-29 07:21:00,29.9,-20.1,30.14,East,90,0.0,0.0,1,0.00,,,0.00,WUHU216HW,2013-12-29 15:21:00,
2013-12-29 07:26:00,29.9,-20.1,30.14,East,90,0.0,0.0,1,0.00,,,0.00,WUHU216HW,2013-12-29 15:26:00,
2013-12-29 07:31:00,29.9,-20.1,30.14,East,90,0.0,0.0,1,0.00,,,0.00,WUHU216HW,2013-12-29 15:31:00,
2013-12-29 07:36:00,30.1,-20.0,30.14,East,90,0.0,0.0,1,0.00,,,0.00,WUHU216HW,2013-12-29 15:36:00,
2013-12-29 07:41:00,30.2,-19.8,30.14,East,90,0.0,0.0,1,0.00,,,0.00,WUHU216HW,2013-12-29 15:41:00,
2013-12-29 07:46:00,30.2,-19.8,30.14,East,90,0.0,0.0,1,0.00,,,0.00,WUHU216HW,2013-12-29 15:46:00,
2013-12-29 07:51:00,30.2,-19.8,30.14,East,90,0.0,0.0,1,0.00,,,0.00,WUHU216HW,2013-12-29 15:51:00,
2013-12-29 07:56:00,30.2,-19.8,30.14,East,90,0.0,0.0,1,0.00,,,0.00,WUHU216HW,2013-12-29 15:56:00,
2013-12-29 08:01:00,30.2,-19.8,30.14,East,90,0.0,0.0,1,0.00,,,0.00,WUHU216HW,2013-12-29 16:01:00,
2013-12-29 08:06:00,30.2,-19.8,30.14,East,90,0.0,0.0,1,0.00,,,0.00,WUHU216HW,2013-12-29 16:06:00,
2013-12-29 08:11:00,30.2,-19.8,30.14,East,90,0.0,0.0,1,0.00,,,0.00,WUHU216HW,2013-12-29 16:11:00,
2013-12-29 08:16:00,30.4,-19.6,30.14,East,90,0.0,0.0,1,0.00,,,0.00,WUHU216HW,2013-12-29 16:16:00,
2013-12-29 08:21:00,30.4,-19.6,30.15,East,90,0.0,0.0,1,0.00,,,0.00,WUHU216HW,2013-12-29 16:21:00,
2013-12-29 08:26:00,30.4,-19.6,30.15,East,90,0.0,0.0,1,0.00,,,0.00,WUHU216HW,2013-12-29 16:26:00,
2013-12-29 08:31:00,30.4,-19.6,30.15,ESE,113,0.0,0.2,1,0.00,,,0.00,WUHU216HW,2013-12-29 16:31:00,
2013-12-29 08:36:00,30.4,-19.6,30.15,ESE,113,0.0,0.2,1,0.00,,,0.00,WUHU216HW,2013-12-29 16:36:00,
2013-12-29 08:41:00,30.4,-19.6,30.15,ESE,113,0.0,0.2,1,0.00,,,0.00,WUHU216HW,2013-12-29 16:41:00,
2013-12-29 08:46:00,30.4,-19.6,30.15,ESE,113,0.0,0.0,1,0.00,,,0.00,WUHU216HW,2013-12-29 16:46:00,
2013-12-29 08:51:00,30.4,-19.6,30.15,ESE,113,0.0,0.0,1,0.00,,,0.00,WUHU216HW,2013-12-29 16:51:00,
2013-12-29 08:56:00,30.6,-19.5,30.15,ESE,113,0.0,0.0,1,0.00,,,0.00,WUHU216HW,2013-12-29 16:56:00,
2013-12-29 09:01:00,31.0,-19.3,30.15,SSW,203,0.0,0.0,1,0.01,,,0.01,WUHU216HW,2013-12-29 17:01:00,
2013-12-29 09:06:00,30.8,-19.3,30.15,NNW,338,0.0,0.4,1,0.01,,,0.01,WUHU216HW,2013-12-29 17:06:00,
2013-12-29 09:11:00,30.8,-19.3,30.16,NNW,338,0.0,0.4,1,0.01,,,0.01,WUHU216HW,2013-12-29 17:11:00,
2013-12-29 09:16:00,31.0,-19.3,30.16,NNW,338,0.0,0.0,1,0.01,,,0.01,WUHU216HW,2013-12-29 17:16:00,
2013-12-29 09:21:00,31.1,-19.1,30.16,NNW,338,0.0,0.0,1,0.01,,,0.01,WUHU216HW,2013-12-29 17:21:00,
2013-12-29 09:26:00,31.3,-18.9,30.16,NNW,338,0.0,0.0,1,0.01,,,0.01,WUHU216HW,2013-12-29 17:26:00,
2013-12-29 09:31:00,31.3,-18.9,30.16,NNW,338,0.0,0.0,1,0.01,,,0.01,WUHU216HW,2013-12-29 17:31:00,
2013-12-29 09:36:00,31.7,-18.6,30.16,NNW,338,0.0,0.0,1,0.01,,,0.01,WUHU216HW,2013-12-29 17:36:00,
2013-12-29 09:41:00,31.9,-18.5,30.17,NNW,338,0.0,0.0,1,0.01,,,0.01,WUHU216HW,2013-12-29 17:41:00,
2013-12-29 09:46:00,32.0,-18.4,30.17,NNW,338,0.0,0.0,1,0.02,,,0.02,WUHU216HW,2013-12-29 17:46:00,
2013-12-29 09:51:00,32.0,-18.4,30.17,NNW,338,0.0,0.0,1,0.02,,,0.02,WUHU216HW,2013-12-29 17:51:00,
2013-12-29 09:56:00,32.2,-18.3,30.17,NNW,338,0.0,0.0,1,0.02,,,0.02,WUHU216HW,2013-12-29 17:56:00,
2013-12-29 10:01:00,32.4,-18.1,30.17,NNW,338,0.0,0.0,1,0.01,,,0.02,WUHU216HW,2013-12-29 18:01:00,
2013-12-29 10:06:00,32.4,-18.1,30.17,NNW,338,0.0,0.0,1,0.01,,,0.02,WUHU216HW,2013-12-29 18:06:00,
2013-12-29 10:11:00,32.4,-18.1,30.17,NNW,338,0.0,0.0,1,0.01,,,0.02,WUHU216HW,2013-12-29 18:11:00,
2013-12-29 10:16:00,32.4,-18.1,30.17,NNW,338,0.0,0.0,1,0.01,,,0.02,WUHU216HW,2013-12-29 18:16:00,
2013-12-29 10:21:00,32.4,-18.1,30.16,NNW,338,0.0,0.0,1,0.01,,,0.02,WUHU216HW,2013-12-29 18:21:00,
2013-12-29 10:26:00,32.6,-18.0,30.16,NNW,338,0.0,0.0,1,0.01,,,0.02,WUHU216HW,2013-12-29 18:26:00,
2013-12-29 10:31:00,32.8,-17.8,30.16,NNW,338,0.0,0.0,1,0.01,,,0.02,WUHU216HW,2013-12-29 18:31:00,
2013-12-29 10:36:00,32.8,-17.8,30.16,NE,45,0.0,0.2,1,0.01,,,0.02,WUHU216HW,2013-12-29 18:36:00,
2013-12-29 10:41:00,32.8,-17.8,30.16,West,270,0.4,0.7,1,0.00,,,0.02,WUHU216HW,2013-12-29 18:41:00,
2013-12-29 10:46:00,32.9,-17.7,30.16,West,270,0.0,0.7,1,0.00,,,0.02,WUHU216HW,2013-12-29 18:46:00,
2013-12-29 10:51:00,33.1,-17.6,30.16,West,270,0.0,0.4,1,0.00,,,0.02,WUHU216HW,2013-12-29 18:51:00,
2013-12-29 10:56:00,33.3,-17.4,30.16,West,270,0.0,0.0,1,0.00,,,0.02,WUHU216HW,2013-12-29 18:56:00,
2013-12-29 11:01:00,33.5,-17.4,30.16,West,270,0.0,0.0,1,0.00,,,0.02,WUHU216HW,2013-12-29 19:01:00,
2013-12-29 11:06:00,33.5,-17.4,30.15,West,270,0.0,0.0,1,0.00,,,0.02,WUHU216HW,2013-12-29 19:06:00,
2013-12-29 11:11:00,33.8,-17.1,30.15,West,270,0.0,0.0,1,0.00,,,0.02,WUHU216HW,2013-12-29 19:11:00,
2013-12-29 11:16:00,34.0,-16.9,30.15,West,270,0.0,0.0,1,0.00,,,0.02,WUHU216HW,2013-12-29 19:16:00,
2013-12-29 11:21:00,34.2,-16.8,30.15,West,270,0.0,0.0,1,0.00,,,0.02,WUHU216HW,2013-12-29 19:21:00,
2013-12-29 11:26:00,34.6,-16.6,30.14,West,270,0.0,0.0,1,0.00,,,0.02,WUHU216HW,2013-12-29 19:26:00,
2013-12-29 11:31:00,34.9,-16.2,30.14,West,270,0.0,0.0,1,0.00,,,0.02,WUHU216HW,2013-12-29 19:31:00,
2013-12-29 11:36:00,35.1,-16.1,30.14,West,270,0.0,0.0,1,0.00,,,0.02,WUHU216HW,2013-12-29 19:36:00,
2013-12-29 11:41:00,35.3,-15.9,30.14,West,270,0.0,0.2,1,0.00,,,0.02,WUHU216HW,2013-12-29 19:41:00,
2013-12-29 11:46:00,35.3,-15.9,30.14,West,270,0.0,0.2,1,0.00,,,0.02,WUHU216HW,2013-12-29 19:46:00,
2013-12-29 12:00:00,36.4,-15.1,30.13,West,270,0.0,0.0,1,0.00,,,0.02,WUHU216HW,2013-12-29 20:00:00,
2013-12-29 12:05:00,36.7,-14.7,30.13,West,270,0.2,0.2,1,0.00,,,0.02,WUHU216HW,2013-12-29 20:05:00,
2013-12-29 12:10:00,36.7,-14.7,30.13,WSW,248,0.0,0.4,1,0.00,,,0.02,WUHU216HW,2013-12-29 20:10:00,
2013-12-29 12:15:00,36.7,-14.7,30.13,WSW,248,0.0,0.4,1,0.00,,,0.02,WUHU216HW,2013-12-29 20:15:00,
2013-12-29 12:20:00,36.7,-14.7,30.13,WSW,248,0.0,0.2,1,0.00,,,0.02,WUHU216HW,2013-12-29 20:20:00,
2013-12-29 12:25:00,36.9,-14.7,30.12,WNW,293,0.0,0.0,1,0.00,,,0.02,WUHU216HW,2013-12-29 20:25:00,
2013-12-29 12:30:00,36.9,-14.7,30.12,South,180,0.0,0.0,1,0.00,,,0.02,WUHU216HW,2013-12-29 20:30:00,
2013-12-29 12:35:00,36.9,-14.7,30.12,SSW,203,0.0,0.2,1,0.00,,,0.02,WUHU216HW,2013-12-29 20:35:00,
2013-12-29 12:40:00,36.9,-14.7,30.12,WSW,248,0.0,0.4,1,0.00,,,0.02,WUHU216HW,2013-12-29 20:40:00,
2013-12-29 12:45:00,37.1,-14.5,30.12,SSW,203,0.4,0.7,1,0.00,,,0.02,WUHU216HW,2013-12-29 20:45:00,
2013-12-29 12:50:00,37.1,-14.5,30.12,WSW,248,0.0,0.7,1,0.00,,,0.02,WUHU216HW,2013-12-29 20:50:00,
2013-12-29 12:55:00,37.1,-14.5,30.12,SSW,203,0.2,0.4,1,0.00,,,0.02,WUHU216HW,2013-12-29 20:55:00,
2013-12-29 13:00:00,37.1,-14.5,30.12,WSW,248,0.2,0.9,1,0.00,,,0.02,WUHU216HW,2013-12-29 21:00:00,
2013-12-29 13:05:00,36.9,-14.7,30.11,WSW,248,0.0,0.9,1,0.00,,,0.02,WUHU216HW,2013-12-29 21:05:00,
2013-12-29 13:10:00,36.7,-14.7,30.11,West,270,0.9,0.9,1,0.00,,,0.02,WUHU216HW,2013-12-29 21:10:00,
2013-12-29 13:15:00,36.7,-14.7,30.11,SSW,203,0.4,1.1,1,0.00,,,0.02,WUHU216HW,2013-12-29 21:15:00,
2013-12-29 13:20:00,36.7,-14.7,30.12,WSW,248,0.0,1.6,1,0.00,,,0.02,WUHU216HW,2013-12-29 21:20:00,
2013-12-29 13:25:00,36.7,-14.7,30.11,SSE,158,0.0,1.6,1,0.00,,,0.02,WUHU216HW,2013-12-29 21:25:00,
2013-12-29 13:30:00,36.7,-14.7,30.12,SSW,203,0.2,0.2,1,0.00,,,0.02,WUHU216HW,2013-12-29 21:30:00,
2013-12-29 13:35:00,36.7,-14.7,30.11,West,270,0.0,0.4,1,0.00,,,0.02,WUHU216HW,2013-12-29 21:35:00,
2013-12-29 13:40:00,36.5,-14.9,30.12,NW,315,1.1,1.3,1,0.00,,,0.02,WUHU216HW,2013-12-29 21:40:00,
2013-12-29 13:45:00,36.5,-14.9,30.11,South,180,0.0,1.3,1,0.00,,,0.02,WUHU216HW,2013-12-29 21:45:00,
2013-12-29 13:50:00,36.5,-14.9,30.11,SSW,203,0.0,0.4,1,0.00,,,0.02,WUHU216HW,2013-12-29 21:50:00,
2013-12-29 13:55:00,36.7,-14.7,30.11,SSW,203,0.0,0.4,1,0.00,,,0.02,WUHU216HW,2013-12-29 21:55:00,
2013-12-29 14:00:00,36.7,-14.7,30.11,SSW,203,0.0,0.0,1,0.00,,,0.02,WUHU216HW,2013-12-29 22:00:00,
2013-12-29 14:05:00,36.7,-14.7,30.11,SSW,203,0.0,0.0,1,0.00,,,0.02,WUHU216HW,2013-12-29 22:05:00,
2013-12-29 14:10:00,36.7,-14.7,30.11,SW,225,0.0,0.2,1,0.00,,,0.02,WUHU216HW,2013-12-29 22:10:00,
2013-12-29 14:15:00,36.5,-14.9,30.11,SW,225,0.0,0.2,1,0.00,,,0.02,WUHU216HW,2013-12-29 22:15:00,
2013-12-29 14:20:00,36.4,-15.1,30.10,WSW,248,0.0,0.2,1,0.00,,,0.02,WUHU216HW,2013-12-29 22:20:00,
2013-12-29 14:25:00,36.4,-15.1,30.10,South,180,0.0,0.2,1,0.00,,,0.02,WUHU216HW,2013-12-29 22:25:00,
2013-12-29 14:30:00,36.4,-15.1,30.10,SW,225,0.0,0.2,1,0.00,,,0.02,WUHU216HW,2013-12-29 22:30:00,
2013-12-29 14:35:00,36.4,-15.1,30.10,SSE,158,0.0,0.4,1,0.00,,,0.02,WUHU216HW,2013-12-29 22:35:00,
2013-12-29 14:40:00,36.0,-15.4,30.10,SSW,203,0.0,0.4,1,0.00,,,0.02,WUHU216HW,2013-12-29 22:40:00,
2013-12-29 14:45:00,36.0,-15.4,30.10,SSW,203,0.2,0.9,1,0.00,,,0.02,WUHU216HW,2013-12-29 22:45:00,
2013-12-29 14:50:00,35.8,-15.5,30.10,South,180,0.2,0.9,1,0.00,,,0.02,WUHU216HW,2013-12-29 22:50:00,
2013-12-29 14:55:00,35.8,-15.5,30.10,SSE,158,0.0,0.4,1,0.00,,,0.02,WUHU216HW,2013-12-29 22:55:00,
2013-12-29 15:00:00,35.6,-15.7,30.11,SSE,158,0.0,0.4,1,0.00,,,0.02,WUHU216HW,2013-12-29 23:00:00,
2013-12-29 15:05:00,35.6,-15.7,30.10,SSE,158,0.0,0.2,1,0.00,,,0.02,WUHU216HW,2013-12-29 23:05:00,
2013-12-29 15:10:00,35.6,-15.7,30.10,SSE,158,0.0,0.2,1,0.00,,,0.02,WUHU216HW,2013-12-29 23:10:00,
2013-12-29 15:15:00,35.6,-15.7,30.11,SSE,158,0.0,0.0,1,0.00,,,0.02,WUHU216HW,2013-12-29 23:15:00,
2013-12-29 15:20:00,35.6,-15.7,30.10,SSE,158,0.0,0.0,1,0.00,,,0.02,WUHU216HW,2013-12-29 23:20:00,
2013-12-29 15:25:00,35.5,-15.8,30.10,ESE,113,0.0,0.0,1,0.00,,,0.02,WUHU216HW,2013-12-29 23:25:00,
2013-12-29 15:30:00,35.5,-15.8,30.10,ESE,113,0.0,0.0,1,0.00,,,0.02,WUHU216HW,2013-12-29 23:30:00,
2013-12-29 15:35:00,35.5,-15.8,30.10,ESE,113,0.0,0.4,1,0.00,,,0.02,WUHU216HW,2013-12-29 23:35:00,
2013-12-29 15:40:00,35.3,-15.9,30.10,ESE,113,0.0,0.4,1,0.00,,,0.02,WUHU216HW,2013-12-29 23:40:00,
2013-12-29 15:45:00,35.3,-15.9,30.09,SSE,158,0.0,0.4,1,0.00,,,0.02,WUHU216HW,2013-12-29 23:45:00,
2013-12-29 15:50:00,35.1,-16.1,30.09,South,180,0.0,0.4,1,0.00,,,0.02,WUHU216HW,2013-12-29 23:50:00,
2013-12-29 15:55:00,35.1,-16.1,30.10,South,180,0.0,0.4,1,0.00,,,0.02,WUHU216HW,2013-12-29 23:55:00,
2013-12-29 16:00:00,35.3,-15.9,30.10,South,180,0.0,0.0,1,0.00,,,0.02,WUHU216HW,2013-12-30 00:00:00,
2013-12-29 16:05:00,35.1,-16.1,30.10,South,180,0.0,0.0,1,0.00,,,0.02,WUHU216HW,2013-12-30 00:05:00,
2013-12-29 16:10:00,35.1,-16.1,30.10,South,180,0.0,0.0,1,0.00,,,0.02,WUHU216HW,2013-12-30 00:10:00,
2013-12-29 16:15:00,35.1,-16.1,30.10,South,180,0.0,0.0,1,0.00,,,0.02,WUHU216HW,2013-12-30 00:15:00,
2013-12-29 16:20:00,35.1,-16.1,30.10,South,180,0.0,0.0,1,0.00,,,0.02,WUHU216HW,2013-12-30 00:20:00,
2013-12-29 16:25:00,34.9,-16.2,30.10,South,180,0.0,0.0,1,0.00,,,0.02,WUHU216HW,2013-12-30 00:25:00,
2013-12-29 16:30:00,34.9,-16.2,30.10,South,180,0.0,0.0,1,0.00,,,0.02,WUHU216HW,2013-12-30 00:30:00,
2013-12-29 16:35:00,35.1,-16.1,30.10,South,180,0.0,0.0,1,0.00,,,0.02,WUHU216HW,2013-12-30 00:35:00,
2013-12-29 16:40:00,35.1,-16.1,30.10,South,180,0.0,0.0,1,0.00,,,0.02,WUHU216HW,2013-12-30 00:40:00,
2013-12-29 16:45:00,34.9,-16.2,30.09,South,180,0.0,0.0,1,0.00,,,0.02,WUHU216HW,2013-12-30 00:45:00,
2013-12-29 16:50:00,34.9,-16.2,30.09,South,180,0.0,0.2,1,0.00,,,0.02,WUHU216HW,2013-12-30 00:50:00,
2013-12-29 16:55:00,34.9,-16.2,30.09,South,180,0.0,0.2,1,0.00,,,0.02,WUHU216HW,2013-12-30 00:55:00,
2013-12-29 17:00:00,34.9,-16.2,30.09,SSE,158,0.0,0.0,1,0.00,,,0.02,WUHU216HW,2013-12-30 01:00:00,
2013-12-29 17:05:00,34.9,-16.2,30.09,SSE,158,0.0,0.0,1,0.00,,,0.02,WUHU216HW,2013-12-30 01:05:00,
2013-12-29 17:10:00,34.9,-16.2,30.09,SSE,158,0.0,0.0,1,0.00,,,0.02,WUHU216HW,2013-12-30 01:10:00,
2013-12-29 17:15:00,34.7,-16.4,30.08,SSE,158,0.0,0.0,1,0.00,,,0.02,WUHU216HW,2013-12-30 01:15:00,
2013-12-29 17:20:00,34.7,-16.4,30.08,SSE,158,0.0,0.0,1,0.00,,,0.02,WUHU216HW,2013-12-30 01:20:00,
2013-12-29 17:25:00,34.6,-16.6,30.09,SSE,158,0.0,0.0,1,0.00,,,0.02,WUHU216HW,2013-12-30 01:25:00,
2013-12-29 17:30:00,34.6,-16.6,30.09,SSE,158,0.0,0.0,1,0.00,,,0.02,WUHU216HW,2013-12-30 01:30:00,
2013-12-29 17:35:00,34.6,-16.6,30.09,SSE,158,0.0,0.0,1,0.00,,,0.02,WUHU216HW,2013-12-30 01:35:00,
2013-12-29 17:40:00,34.4,-16.6,30.09,SSE,158,0.0,0.0,1,0.00,,,0.02,WUHU216HW,2013-12-30 01:40:00,
2013-12-29 17:45:00,34.4,-16.6,30.09,SSE,158,0.0,0.0,1,0.00,,,0.02,WUHU216HW,2013-12-30 01:45:00,
2013-12-29 17:50:00,34.2,-16.8,30.08,SSE,158,0.0,0.0,1,0.00,,,0.02,WUHU216HW,2013-12-30 01:50:00,
2013-12-29 17:55:00,34.2,-16.8,30.08,SSE,158,0.0,0.0,1,0.00,,,0.02,WUHU216HW,2013-12-30 01:55:00,
2013-12-29 18:00:00,34.0,-16.9,30.08,SSE,158,0.0,0.0,1,0.00,,,0.02,WUHU216HW,2013-12-30 02:00:00,
2013-12-29 18:05:00,34.0,-16.9,30.09,SSE,158,0.0,0.0,1,0.00,,,0.02,WUHU216HW,2013-12-30 02:05:00,
2013-12-29 18:10:00,33.8,-17.1,30.08,SSE,158,0.0,0.0,1,0.00,,,0.02,WUHU216HW,2013-12-30 02:10:00,
2013-12-29 18:15:00,33.8,-17.1,30.08,SSE,158,0.0,0.0,1,0.00,,,0.02,WUHU216HW,2013-12-30 02:15:00,
2013-12-29 18:20:00,33.8,-17.1,30.08,SSE,158,0.0,0.0,1,0.00,,,0.02,WUHU216HW,2013-12-30 02:20:00,
2013-12-29 18:25:00,33.8,-17.1,30.07,SSE,158,0.0,0.0,1,0.00,,,0.02,WUHU216HW,2013-12-30 02:25:00,
2013-12-29 18:30:00,33.8,-17.1,30.08,SSE,158,0.0,0.0,1,0.00,,,0.02,WUHU216HW,2013-12-30 02:30:00,
2013-12-29 18:35:00,33.8,-17.1,30.07,SSE,158,0.0,0.0,1,0.00,,,0.02,WUHU216HW,2013-12-30 02:35:00,
2013-12-29 18:40:00,33.8,-17.1,30.08,SSE,158,0.0,0.0,1,0.00,,,0.02,WUHU216HW,2013-12-30 02:40:00,
2013-12-29 18:45:00,33.7,-17.2,30.08,SSE,158,0.0,0.0,1,0.00,,,0.02,WUHU216HW,2013-12-30 02:45:00,
2013-12-29 18:50:00,33.7,-17.2,30.08,SSE,158,0.0,0.0,1,0.00,,,0.02,WUHU216HW,2013-12-30 02:50:00,
2013-12-29 18:55:00,33.7,-17.2,30.09,SSE,158,0.0,0.0,1,0.00,,,0.02,WUHU216HW,2013-12-30 02:55:00,
2013-12-29 19:00:00,33.5,-17.4,30.09,SSE,158,0.0,0.0,1,0.00,,,0.02,WUHU216HW,2013-12-30 03:00:00,
2013-12-29 19:05:00,33.5,-17.4,30.09,SSE,158,0.0,0.0,1,0.00,,,0.02,WUHU216HW,2013-12-30 03:05:00,
2013-12-29 19:10:00,33.5,-17.4,30.09,SSE,158,0.0,0.0,1,0.00,,,0.02,WUHU216HW,2013-12-30 03:10:00,
2013-12-29 19:15:00,33.5,-17.4,30.09,SSE,158,0.0,0.0,1,0.00,,,0.02,WUHU216HW,2013-12-30 03:15:00,
2013-12-29 19:20:00,33.5,-17.4,30.09,SSE,158,0.0,0.0,1,0.00,,,0.02,WUHU216HW,2013-12-30 03:20:00,
2013-12-29 19:25:00,33.5,-17.4,30.08,SSE,158,0.0,0.0,1,0.00,,,0.02,WUHU216HW,2013-12-30 03:25:00,
2013-12-29 19:30:00,33.5,-17.4,30.08,SSE,158,0.0,0.0,1,0.00,,,0.02,WUHU216HW,2013-12-30 03:30:00,
2013-12-29 19:35:00,33.5,-17.4,30.08,SSE,158,0.0,0.0,1,0.00,,,0.02,WUHU216HW,2013-12-30 03:35:00,
2013-12-29 19:40:00,33.5,-17.4,30.08,SSE,158,0.0,0.0,1,0.00,,,0.02,WUHU216HW,2013-12-30 03:40:00,
2013-12-29 19:45:00,33.3,-17.4,30.08,SSE,158,0.0,0.0,1,0.00,,,0.02,WUHU216HW,2013-12-30 03:45:00,
2013-12-29 19:50:00,33.3,-17.4,30.08,SSE,158,0.0,0.0,1,0.00,,,0.02,WUHU216HW,2013-12-30 03:50:00,
2013-12-29 19:55:00,33.3,-17.4,30.08,SSE,158,0.0,0.0,1,0.00,,,0.02,WUHU216HW,2013-12-30 03:55:00,
2013-12-29 20:00:00,33.3,-17.4,30.08,SSE,158,0.0,0.0,1,0.00,,,0.02,WUHU216HW,2013-12-30 04:00:00,
2013-12-29 20:05:00,33.3,-17.4,30.08,SSE,158,0.0,0.0,1,0.00,,,0.02,WUHU216HW,2013-12-30 04:05:00,
2013-12-29 20:10:00,33.1,-17.6,30.08,SSE,158,0.0,0.0,1,0.00,,,0.02,WUHU216HW,2013-12-30 04:10:00,
2013-12-29 20:15:00,33.1,-17.6,30.08,SSE,158,0.0,0.0,1,0.00,,,0.02,WUHU216HW,2013-12-30 04:15:00,
2013-12-29 20:20:00,33.1,-17.6,30.07,SSE,158,0.0,0.0,1,0.00,,,0.02,WUHU216HW,2013-12-30 04:20:00,
2013-12-29 20:25:00,33.1,-17.6,30.08,SSE,158,0.0,0.0,1,0.00,,,0.02,WUHU216HW,2013-12-30 04:25:00,
2013-12-29 20:30:00,33.1,-17.6,30.07,SSE,158,0.0,0.0,1,0.00,,,0.02,WUHU216HW,2013-12-30 04:30:00,
2013-12-29 20:35:00,33.3,-17.4,30.07,SSE,158,0.0,0.0,1,0.00,,,0.02,WUHU216HW,2013-12-30 04:35:00,
2013-12-29 20:40:00,33.3,-17.4,30.08,SSE,158,0.0,0.0,1,0.00,,,0.02,WUHU216HW,2013-12-30 04:40:00,
2013-12-29 20:45:00,33.1,-17.6,30.07,SSE,158,0.0,0.0,1,0.00,,,0.02,WUHU216HW,2013-12-30 04:45:00,
2013-12-29 20:50:00,33.1,-17.6,30.07,SSE,158,0.0,0.0,1,0.00,,,0.02,WUHU216HW,2013-12-30 04:50:00,
2013-12-29 20:55:00,33.1,-17.6,30.07,SSE,158,0.0,0.0,1,0.00,,,0.02,WUHU216HW,2013-12-30 04:55:00,
2013-12-29 21:00:00,33.1,-17.6,30.07,SSE,158,0.0,0.0,1,0.00,,,0.02,WUHU216HW,2013-12-30 05:00:00,
2013-12-29 21:01:00,33.1,-17.6,30.07,SSE,158,0.0,0.0,1,0.00,,,0.02,WUHU216HW,2013-12-30 05:01:00,
2013-12-29 21:06:00,33.1,-17.6,30.07,SSE,158,0.0,0.0,1,0.00,,,0.02,WUHU216HW,2013-12-30 05:06:00,
2013-12-29 21:11:00,33.1,-17.6,30.07,SSE,158,0.0,0.0,1,0.00,,,0.02,WUHU216HW,2013-12-30 05:11:00,
2013-12-29 21:16:00,33.1,-17.6,30.07,SSE,158,0.0,0.0,1,0.00,,,0.02,WUHU216HW,2013-12-30 05:16:00,
2013-12-29 21:21:00,32.9,-17.7,30.07,SSE,158,0.0,0.0,1,0.00,,,0.02,WUHU216HW,2013-12-30 05:21:00,
2013-12-29 21:26:00,32.9,-17.7,30.07,SSE,158,0.0,0.0,1,0.00,,,0.02,WUHU216HW,2013-12-30 05:26:00,
2013-12-29 21:31:00,32.9,-17.7,30.07,SSE,158,0.0,0.0,1,0.00,,,0.02,WUHU216HW,2013-12-30 05:31:00,
2013-12-29 21:36:00,32.9,-17.7,30.07,SSE,158,0.0,0.0,1,0.00,,,0.02,WUHU216HW,2013-12-30 05:36:00,
2013-12-29 21:41:00,32.8,-17.8,30.07,SSE,158,0.0,0.0,1,0.00,,,0.02,WUHU216HW,2013-12-30 05:41:00,
2013-12-29 21:46:00,32.8,-17.8,30.07,SE,135,0.0,0.0,1,0.00,,,0.02,WUHU216HW,2013-12-30 05:46:00,
2013-12-29 21:51:00,32.8,-17.8,30.07,SE,135,0.0,0.0,1,0.00,,,0.02,WUHU216HW,2013-12-30 05:51:00,
2013-12-29 21:56:00,32.8,-17.8,30.07,SE,135,0.0,0.0,1,0.00,,,0.02,WUHU216HW,2013-12-30 05:56:00,
2013-12-29 22:01:00,32.6,-18.0,30.07,SE,135,0.0,0.0,1,0.00,,,0.02,WUHU216HW,2013-12-30 06:01:00,
2013-12-29 22:06:00,32.6,-18.0,30.06,SE,135,0.0,0.0,1,0.00,,,0.02,WUHU216HW,2013-12-30 06:06:00,
2013-12-29 22:11:00,32.6,-18.0,30.06,SE,135,0.0,0.0,1,0.00,,,0.02,WUHU216HW,2013-12-30 06:11:00,
2013-12-29 22:16:00,32.4,-18.1,30.06,SE,135,0.0,0.0,1,0.00,,,0.02,WUHU216HW,2013-12-30 06:16:00,
2013-12-29 22:21:00,32.4,-18.1,30.06,SE,135,0.0,0.0,1,0.00,,,0.02,WUHU216HW,2013-12-30 06:21:00,
2013-12-29 22:26:00,32.4,-18.1,30.06,SE,135,0.0,0.0,1,0.00,,,0.02,WUHU216HW,2013-12-30 06:26:00,
2013-12-29 22:31:00,32.2,-18.3,30.07,SE,135,0.0,0.0,1,0.00,,,0.02,WUHU216HW,2013-12-30 06:31:00,
2013-12-29 22:36:00,32.2,-18.3,30.06,SE,135,0.0,0.0,1,0.00,,,0.02,WUHU216HW,2013-12-30 06:36:00,
2013-12-29 22:41:00,32.0,-18.4,30.06,SE,135,0.0,0.0,1,0.00,,,0.02,WUHU216HW,2013-12-30 06:41:00,
2013-12-29 22:46:00,32.0,-18.4,30.06,SE,135,0.0,0.0,1,0.00,,,0.02,WUHU216HW,2013-12-30 06:46:00,
2013-12-29 22:51:00,32.0,-18.4,30.06,SE,135,0.0,0.0,1,0.00,,,0.02,WUHU216HW,2013-12-30 06:51:00,
2013-12-29 22:56:00,32.0,-18.4,30.06,SE,135,0.0,0.0,1,0.00,,,0.02,WUHU216HW,2013-12-30 06:56:00,
2013-12-29 23:01:00,32.0,-18.4,30.06,SE,135,0.0,0.0,1,0.00,,,0.02,WUHU216HW,2013-12-30 07:01:00,
2013-12-29 23:06:00,32.0,-18.4,30.06,SE,135,0.0,0.0,1,0.00,,,0.02,WUHU216HW,2013-12-30 07:06:00,
2013-12-29 23:11:00,32.0,-18.4,30.06,SE,135,0.0,0.0,1,0.00,,,0.02,WUHU216HW,2013-12-30 07:11:00,
2013-12-29 23:16:00,32.0,-18.4,30.05,SE,135,0.0,0.0,1,0.00,,,0.02,WUHU216HW,2013-12-30 07:16:00,
2013-12-29 23:21:00,32.0,-18.4,30.06,SE,135,0.0,0.0,1,0.00,,,0.02,WUHU216HW,2013-12-30 07:21:00,
2013-12-29 23:26:00,31.9,-18.5,30.05,SE,135,0.0,0.0,1,0.00,,,0.02,WUHU216HW,2013-12-30 07:26:00,
2013-12-29 23:31:00,31.9,-18.5,30.06,SE,135,0.0,0.0,1,0.00,,,0.02,WUHU216HW,2013-12-30 07:31:00,
2013-12-29 23:36:00,31.9,-18.5,30.05,SE,135,0.0,0.0,1,0.00,,,0.02,WUHU216HW,2013-12-30 07:36:00,
2013-12-29 23:41:00,31.7,-18.6,30.05,SE,135,0.0,0.0,1,0.00,,,0.02,WUHU216HW,2013-12-30 07:41:00,
2013-12-29 23:46:00,31.7,-18.6,30.05,SE,135,0.0,0.0,1,0.00,,,0.02,WUHU216HW,2013-12-30 07:46:00,
2013-12-29 23:51:00,31.7,-18.6,30.05,South,180,0.0,0.2,1,0.00,,,0.02,WUHU216HW,2013-12-30 07:51:00,
2013-12-29 23:56:00,31.7,-18.6,30.05,SSW,203,0.0,0.4,1,0.00,,,0.02,WUHU216HW,2013-12-30 07:56:00,